Owosso, MI

4:17 AM EDT on April 25, 2017 (GMT -0400)
Owosso

Weather History for KRNP - October, 2012

Change the Weather History Date:

Monday, October 22, 2012

  Actual Average (KFNT) Record (KFNT)
Temperature  
Mean Temperature 56 °F -  
Max Temperature 72 °F 56 °F 80 °F (1979)
Min Temperature 40 °F 38 °F 23 °F (1930)
Degree Days  
Heating Degree Days 9    
Growing Degree Days 6 (Base 50)    
Moisture  
Dew Point 52 °F    
Average Humidity 80    
Maximum Humidity 100    
Minimum Humidity 58    
Precipitation  
Precipitation 0.00 in - - ()
Sea Level Pressure  
Sea Level Pressure 30.02 in    
Wind  
Wind Speed 2 mph (SSE)    
Max Wind Speed 8 mph    
Max Gust Speed -    
Visibility 10 miles    
Events Rain    
Averages and records for this station are not official NWS values.
T = Trace of Precipitation, MM = Missing Value Source: NWS Daily Summary

Daily Weather History Graph

Daily Weather History Graph

Search for Another Location

Airport or City:

Trip Planner

Search our weather history database for the weather conditions in past years. The results will help you decide how hot, cold, wet, or windy it might be!

Date:

Astronomy

Oct. 22, 2012 Rise Set
Actual Time 7:59 AM EDT 6:42 PM EDT
Civil Twilight 7:30 AM EDT 7:10 PM EDT
Nautical Twilight 6:57 AM EDT 7:44 PM EDT
Astronomical Twilight 6:24 AM EDT 8:16 PM EDT
Moon 2:59 PM EDT (10/22) 12:34 AM EDT (10/22)
Length of Visible Light 11h 40m
Length of Day
10h 42m
First Quarter, 56% of the Moon is Illuminated
Oct 22
First Quarter
Oct 29
Full
Nov 6
Last Quarter
Nov 13
New
Nov 20
First Quarter

Hourly Weather History & Observations

Time (EDT) Temp. Windchill Dew Point Humidity Pressure Visibility Wind Dir Wind Speed Gust Speed Precip Events Conditions
12:15 AM 44.8 °F - 42.1 °F 90% 30.07 in 10.0 mi Calm Calm - N/A   Clear
12:35 AM 42.8 °F - 41.2 °F 94% 30.07 in 10.0 mi Calm Calm - N/A   Clear
12:55 AM 42.8 °F 41.1 °F 41.4 °F 95% 30.07 in 10.0 mi ESE 3.5 mph - N/A   Clear
1:15 AM 42.8 °F - 41.4 °F 95% 30.06 in 10.0 mi Calm Calm - N/A   Clear
1:55 AM 45.3 °F - 41.7 °F 87% 30.07 in 10.0 mi Calm Calm - N/A   Clear
2:15 AM 42.3 °F - 40.3 °F 93% 30.07 in 10.0 mi Calm Calm - N/A   Clear
2:35 AM 41.9 °F - 40.8 °F 96% 30.07 in 10.0 mi Calm Calm - N/A   Clear
2:55 AM 40.8 °F - 40.1 °F 97% 30.07 in 10.0 mi Calm Calm - N/A   Clear
3:15 AM 41.7 °F - 41.0 °F 97% 30.07 in 10.0 mi Calm Calm - N/A   Clear
3:35 AM 43.2 °F - 42.1 °F 96% 30.06 in 10.0 mi Calm Calm - N/A   Clear
3:55 AM 45.7 °F - 43.9 °F 93% 30.06 in 10.0 mi Calm Calm - N/A   Clear
4:15 AM 45.7 °F - 43.7 °F 93% 30.06 in 10.0 mi Calm Calm - N/A   Clear
4:55 AM 45.3 °F - 43.2 °F 92% 30.06 in 10.0 mi Calm Calm - N/A   Clear
5:15 AM 45.9 °F - 43.3 °F 91% 30.05 in 10.0 mi Calm Calm - N/A   Clear
5:35 AM 48.2 °F - 44.4 °F 87% 30.05 in 10.0 mi SE 3.5 mph - N/A   Clear
5:55 AM 46.4 °F - 44.1 °F 92% 30.05 in 10.0 mi Calm Calm - N/A   Clear
6:16 AM 45.7 °F - 43.9 °F 93% 30.05 in 10.0 mi Calm Calm - N/A   Clear
6:35 AM 46.4 °F 45.2 °F 44.8 °F 94% 30.05 in 10.0 mi SSE 3.5 mph - N/A   Clear
6:55 AM 48.6 °F - 45.3 °F 89% 30.05 in 10.0 mi SSE 4.6 mph - N/A   Clear
7:15 AM 48.9 °F - 45.5 °F 88% 30.05 in 10.0 mi SSE 3.5 mph - N/A   Clear
7:35 AM 48.6 °F - 45.3 °F 89% 30.05 in 10.0 mi SSE 3.5 mph - N/A   Clear
7:55 AM 48.7 °F - 45.5 °F 89% 30.05 in 10.0 mi SSE 3.5 mph - N/A   Clear
8:15 AM 48.7 °F - 45.5 °F 89% 30.05 in 10.0 mi SSE 3.5 mph - N/A   Clear
8:35 AM 49.1 °F - 46.0 °F 89% 30.05 in 10.0 mi Calm Calm - N/A   Clear
8:55 AM 51.3 °F - 47.3 °F 86% 30.06 in 10.0 mi SSE 3.5 mph - N/A   Clear
9:15 AM 53.1 °F - 48.2 °F 84% 30.06 in 10.0 mi South 3.5 mph - N/A   Clear
9:35 AM 54.5 °F - 48.7 °F 81% 30.06 in 10.0 mi Calm Calm - N/A   Clear
9:55 AM 55.6 °F - 49.5 °F 80% 30.06 in 10.0 mi Calm Calm - N/A   Clear
10:15 AM 57.2 °F - 50.0 °F 77% 30.06 in 10.0 mi South 4.6 mph - N/A   Clear
10:35 AM 59.4 °F - 50.7 °F 73% 30.05 in 10.0 mi SSE 4.6 mph - N/A   Clear
10:55 AM 60.4 °F - 51.6 °F 73% 30.06 in 10.0 mi SSE 3.5 mph - N/A   Clear
11:15 AM 62.4 °F - 52.0 °F 69% 30.06 in 10.0 mi SSE 4.6 mph - N/A   Clear
11:36 AM 64.9 °F - 52.7 °F 64% 30.06 in 10.0 mi South 4.6 mph - N/A   Clear
11:55 AM 66.6 °F - 53.1 °F 62% 30.04 in 10.0 mi South 4.6 mph - N/A   Clear
12:15 PM 67.8 °F - 53.8 °F 61% 30.04 in 10.0 mi SE 3.5 mph - N/A   Clear
12:35 PM 68.0 °F - 53.8 °F 60% 30.04 in 10.0 mi ESE 4.6 mph - N/A   Clear
12:55 PM 68.9 °F - 53.8 °F 58% 30.03 in 10.0 mi SSE 4.6 mph - N/A   Clear
1:15 PM 70.0 °F - 54.7 °F 58% 30.03 in 10.0 mi SSE 3.5 mph - N/A   Mostly Cloudy
1:35 PM 70.2 °F - 55.4 °F 59% 30.02 in 10.0 mi SE 4.6 mph - N/A   Overcast
1:54 PM 70.9 °F - 55.9 °F 59% 30.01 in 10.0 mi SSE 3.5 mph - N/A   Overcast
2:15 PM 71.6 °F - 57.4 °F 61% 30.01 in 10.0 mi South 4.6 mph - N/A   Overcast
2:35 PM 72.7 °F - 57.9 °F 60% 30.01 in 10.0 mi SSE 4.6 mph - N/A   Overcast
2:55 PM 72.0 °F - 58.8 °F 63% 30.01 in 10.0 mi SSW 5.8 mph - N/A   Overcast
3:15 PM 71.6 °F - 59.2 °F 65% 30.00 in 10.0 mi South 5.8 mph - N/A   Overcast
3:35 PM 71.2 °F - 59.9 °F 67% 29.99 in 10.0 mi South 3.5 mph - N/A   Overcast
4:15 PM 71.6 °F - 60.3 °F 67% 29.98 in 10.0 mi SE 5.8 mph - N/A   Overcast
4:35 PM 71.6 °F - 59.7 °F 66% 29.97 in 10.0 mi SE 8.1 mph - N/A   Mostly Cloudy
4:55 PM 71.6 °F - 59.4 °F 65% 29.97 in 10.0 mi SSE 5.8 mph - N/A   Overcast
5:15 PM 71.2 °F - 59.4 °F 66% 29.97 in 10.0 mi SSE 4.6 mph - N/A   Mostly Cloudy
5:35 PM 70.5 °F - 58.6 °F 66% 29.96 in 10.0 mi SSE 6.9 mph - N/A   Mostly Cloudy
5:55 PM 69.8 °F - 58.1 °F 66% 29.96 in 10.0 mi SSE 6.9 mph - N/A   Scattered Clouds
6:15 PM 69.3 °F - 58.1 °F 68% 29.97 in 10.0 mi SSE 4.6 mph - N/A   Mostly Cloudy
6:36 PM 68.5 °F - 57.2 °F 67% 29.96 in 10.0 mi SSE 5.8 mph - N/A   Mostly Cloudy
6:55 PM 68.0 °F - 57.2 °F 68% 29.97 in 10.0 mi SSE 4.6 mph - N/A   Scattered Clouds
7:15 PM 67.3 °F - 57.2 °F 70% 29.97 in 10.0 mi SE 3.5 mph - N/A   Mostly Cloudy
7:35 PM 66.2 °F - 57.2 °F 73% 29.98 in 10.0 mi SSW 3.5 mph - N/A   Scattered Clouds
7:55 PM 65.8 °F - 57.4 °F 74% 29.98 in 10.0 mi SSW 3.5 mph - N/A   Mostly Cloudy
8:15 PM 65.5 °F - 57.2 °F 75% 29.99 in 10.0 mi SW 3.5 mph - N/A   Overcast
8:34 PM 65.3 °F - 57.4 °F 76% 29.99 in 10.0 mi Calm Calm - N/A Rain Light Rain
8:55 PM 64.9 °F - 57.2 °F 76% 29.99 in 10.0 mi Calm Calm - N/A   Light Drizzle
9:15 PM 62.4 °F - 58.1 °F 86% 29.98 in 10.0 mi Calm Calm - N/A   Mostly Cloudy
9:35 PM 61.0 °F - 57.7 °F 89% 29.96 in 10.0 mi Calm Calm - N/A   Mostly Cloudy
9:55 PM 60.6 °F - 58.3 °F 92% 29.96 in 10.0 mi Calm Calm - N/A Rain Rain
10:15 PM 61.9 °F - 59.4 °F 91% 29.96 in 10.0 mi SE 4.6 mph - N/A Rain Light Rain
10:35 PM 61.3 °F - 59.9 °F 95% 29.95 in 7.0 mi ENE 4.6 mph - N/A Rain Light Rain
10:55 PM 60.8 °F - 60.1 °F 97% 29.98 in 7.0 mi WSW 4.6 mph - N/A Rain Light Rain
11:15 PM 60.8 °F - 60.4 °F 99% 29.98 in 3.0 mi Calm Calm - N/A Rain Rain
11:35 PM 60.8 °F - 60.8 °F 100% 29.99 in 4.0 mi SSW 3.5 mph - N/A Rain Rain
11:55 PM 61.0 °F - 61.0 °F 100% 29.98 in 4.0 mi SSE 4.6 mph - N/A Rain Rain